TimeEDT,TemperatureF,Dew PointF,Humidity,Sea Level PressureIn,VisibilityMPH,Wind Direction,Wind SpeedMPH,Gust SpeedMPH,PrecipitationIn,Events,Conditions,WindDirDegrees,DateUTC
12:12 AM,60.8,60.8,100,30.00,10.0,Calm,Calm,-,N/A,,Clear,0,2013-05-10 04:12:00
12:30 AM,59.0,59.0,100,30.00,7.0,Calm,Calm,-,N/A,,Clear,0,2013-05-10 04:30:00
12:51 AM,60.8,59.0,94,30.01,10.0,SW,3.5,-,N/A,,Clear,220,2013-05-10 04:51:00
1:12 AM,64.4,59.0,83,30.01,10.0,SW,5.8,-,N/A,,Clear,230,2013-05-10 05:12:00
1:51 AM,60.8,57.2,88,30.00,10.0,Calm,Calm,-,N/A,,Clear,0,2013-05-10 05:51:00
2:12 AM,60.8,57.2,88,30.01,10.0,SSW,3.5,-,N/A,,Clear,210,2013-05-10 06:12:00
2:30 AM,60.8,59.0,94,30.01,10.0,WSW,3.5,-,N/A,,Clear,250,2013-05-10 06:30:00
2:51 AM,60.8,57.2,88,30.01,10.0,WNW,3.5,-,N/A,,Clear,290,2013-05-10 06:51:00
3:12 AM,59.0,57.2,94,30.01,10.0,Calm,Calm,-,N/A,,Clear,0,2013-05-10 07:12:00
3:51 AM,59.0,57.2,94,30.00,10.0,Calm,Calm,-,N/A,,Clear,0,2013-05-10 07:51:00
4:12 AM,57.2,57.2,100,30.01,10.0,Calm,Calm,-,N/A,,Clear,0,2013-05-10 08:12:00
4:51 AM,57.2,55.4,94,30.00,10.0,Calm,Calm,-,N/A,,Clear,0,2013-05-10 08:51:00
5:12 AM,57.2,57.2,100,30.00,7.0,Calm,Calm,-,N/A,,Clear,0,2013-05-10 09:12:00
5:36 AM,55.4,55.4,100,30.01,5.0,Calm,Calm,-,N/A,,Clear,0,2013-05-10 09:36:00
5:45 AM,55.4,55.4,100,30.01,7.0,Calm,Calm,-,N/A,,Scattered Clouds,0,2013-05-10 09:45:00
7:55 AM,66.2,59.0,78,30.02,7.0,Calm,Calm,-,N/A,,Scattered Clouds,0,2013-05-10 11:55:00
9:45 AM,71.6,62.6,73,30.02,7.0,SSE,6.9,-,N/A,,Scattered Clouds,150,2013-05-10 13:45:00
10:45 AM,71.6,62.6,73,30.03,7.0,SE,5.8,-,N/A,,Scattered Clouds,140,2013-05-10 14:45:00
11:45 AM,75.2,60.8,61,30.02,7.0,SE,5.8,-,N/A,,Scattered Clouds,130,2013-05-10 15:45:00
12:45 PM,75.2,60.8,61,30.00,7.0,SE,8.1,-,N/A,,Scattered Clouds,140,2013-05-10 16:45:00
1:50 PM,77.0,59.0,54,29.98,10.0,ESE,10.4,-,N/A,,Scattered Clouds,120,2013-05-10 17:50:00
2:55 PM,78.8,62.6,57,29.97,10.0,SE,9.2,-,N/A,,Scattered Clouds,130,2013-05-10 18:55:00
3:55 PM,78.8,59.0,51,29.94,10.0,SE,8.1,-,N/A,,Scattered Clouds,130,2013-05-10 19:55:00
4:50 PM,78.8,60.8,54,29.93,10.0,SE,8.1,-,N/A,,Scattered Clouds,130,2013-05-10 20:50:00
5:45 PM,77.0,62.6,61,29.92,10.0,SE,11.5,-,N/A,,Mostly Cloudy,140,2013-05-10 21:45:00
6:45 PM,75.2,62.6,65,29.90,10.0,SE,10.4,-,N/A,,Mostly Cloudy,130,2013-05-10 22:45:00
7:50 PM,75.2,62.6,65,29.89,10.0,SE,11.5,-,N/A,,Mostly Cloudy,140,2013-05-10 23:50:00
8:50 PM,73.4,60.8,65,29.90,10.0,SE,6.9,-,N/A,,Mostly Cloudy,140,2013-05-11 00:50:00
10:15 PM,68.0,62.6,83,29.94,10.0,WNW,15.0,31.1,N/A,Thunderstorm,Mostly Cloudy,300,2013-05-11 02:15:00
10:33 PM,64.4,62.6,94,29.94,10.0,WNW,12.7,18.4,0.02,Rain-Thunderstorm,Light Thunderstorms and Rain,290,2013-05-11 02:33:00
10:54 PM,64.4,62.6,94,29.94,10.0,West,8.1,-,0.04,Rain-Thunderstorm,Light Thunderstorms and Rain,280,2013-05-11 02:54:00
11:15 PM,64.4,62.6,94,29.92,3.0,NW,4.6,17.3,0.26,Rain,Light Rain,320,2013-05-11 03:15:00
11:33 PM,64.4,64.4,100,29.92,10.0,Calm,Calm,-,0.26,,Scattered Clouds,0,2013-05-11 03:33:00
11:54 PM,64.4,64.4,100,29.97,3.0,South,5.8,-,0.40,Rain-Thunderstorm,Heavy Thunderstorms and Rain,180,2013-05-11 03:54:00